COSMOS 1275 DEB, 13817

Orbit data source: Space-Track

COSMOS 1275 DEB, 13817 is space debris in LEO originally from a launch on Thu, 04 Jun 1981 UTC launched from the Plesetsk Missile And Space Complex (PKMTR). Debris objects in space refer to the collection of defunct objects orbiting the Earth. Examples of debris include non-operational satellites, rocket bodies, and fragments generated from explosions, collisions, or faulty payload assembly.

Loading next visibility...
Identifier
13817, 1981-053HM
Orbit
LEO
Country
Flag of CISCIS
Related business
Manufacturer
Unknown
Mission
Spacecraft
Bus & Motor
Unknown
Mass
Unknown
Launch date (UTC)
1981-06-04 (45 years ago)
Launch vehicle
Unknown
Launch site
Plesetsk Missile And Space Complex (PKMTR)
Object type
Payload
Rocket body
Debris
Shape & HBR
Unknown shape, 0.1 m
Radar Cross Section
Small (<0.1 m²)

Expand to show TLE details & history
Last TLE update: 10 hours ago

TLE from 10 hours ago
0 COSMOS 1275 DEB
1 13817U 81053HM  26037.36286116  .00002259  00000-0  13280-2 0  9992
2 13817  82.9446  19.6937 0023151  31.0849 329.1689 14.07536200237566
Epoch: 2026-02-06T08:42Z
TLE epoch observation values (Epoch: 2026-02-06T08:42:31.204Z)
Latitude
-0.00004°
Longitude
112.56186°
Altitude
856.363 km
Speed
7.432 km/s
True Right ascension
01h 18m 46s
True Declination
0° 00' 00"
Sunlit
Object was in daylight at epoch
Visualization orbit readout
Latitude
Unknown
Longitude
Unknown
Altitude
Unknown
Speed
Unknown
Apparent Right ascension
Unknown
Apparent Declination
Unknown
Sunlit
N/A
Visualization observer readout
Local Sidereal Time
20:40:15
Azimuth
Unknown
Elevation
Unknown
Doppler factor
Unknown
Orbital elements
Apogee altitude
881.687 km
Perigee altitude
848.151 km
Semi-major axis
7,243.056 km
Eccentricity
0.00232
Inclination
82.9446°
RAAN
19.6937°
Arg. of periapsis
31.0849°
True anomaly
329.0326°
Mean anomaly
329.1689°
Eccentric anomaly
329.10078°
Mean motion
3.52095 °/min
Orbital period
102.25 mins
BSTAR
0.001328
Loading maneuver chart data...
Computing Atmospheric mass density...
Loading historical data...
Loading historical data...
Loading historical data...
Loading historical data...
Loading historical data...
Loading historical data...
Loading historical data...

Documentation

Showing up to 5 results
|